Location: Moscow
(55.7500°N, 37.5830°E)
Time: 19:33:23
(UTC+03:00)

Tiros 1 despin weight - Pass Details

Date: 05 December 2021
Orbit: 592 x 641 km, 48.2° (Epoch: 19 January)

Event Time Altitude Azimuth Distance (km) Brightness Sun altitude
Rises 17:02:11 0° 263° (W) 2,827 ? -8.1°
Reaches altitude 10° 17:04:44 10° 251° (WSW) 1,923 ? -8.4°
Maximum altitude 17:08:24 26° 194° (SSW) 1,174 ? -8.9°
Drops below altitude 10° 17:12:04 10° 138° (SE) 1,923 ? -9.4°
Sets 17:14:37 0° 126° (SE) 2,828 ? -9.7°
